If you wish to contribute or participate in the discussions about articles you are invited to join SKYbrary as a registered user

 Actions

Venezia / Tessera - Marco Polo Airport

From SKYbrary Wiki

LIPZ
Airport
ICAO: LIPZ – IATA: VCE
Summary
Name Venezia / Tessera - Marco Polo Airport
Region Europe
Territory Italy IT.gif
Location Tessera, Veneto
Serving Venice
Elevation 2.134 m <br />7 ft <br />7 ft2.134 m <br />
Type large airport
Coordinates 45° 30' 19.00" N, 12° 21' 7.00" E
Runways
Designator Length Width Surface ROPS
04L/22R 2780 m9,120.735 ft <br /> 45 m147.638 ft <br /> ASP yes/yes
04R/22L 3300 m10,826.772 ft <br /> 45 m147.638 ft <br /> ASP yes/yes


METAR
Observation LIPZ 161850Z 27006KT CAVOK 10/02 Q1018 NOSIG
Station Venezia / Tessera
Date/Time 16 April 2021 18:50:00
Wind direction 270°
Wind speed 06 kts
Lowest cloud amount clouds and visibility OK
Temperature 10°C
Dew point 2°C
Humidity 57%
QNH 1018 hPa
Weather condition n/a

Venice Marco Polo Airport is the international airport of Venice, Italy. It is located on the mainland 4.3 nautical miles north of the city in Tessera.

Maps

Terrain

Loading map...

Airport Layout

Loading map...


Accidents & Serious Incidents at or in vicinity of LIPZ

None on SKYbrary